This is the latest recevied weather packets stored in our database for station/object N4QB-13. If no packets are shown the sender has not sent any weather packets the latest 10 day(s).
| Time | Temp. | Humidity | Pressure | Rain* | Wind** | Luminosity | Snow |
|---|---|---|---|---|---|---|---|
| 1777688123 | 17.22° C | 98% | 1010.1 hPa | 1.27 mm | - | 0 W/m² | - |
| 1777687820 | 17.22° C | 98% | 1010 hPa | 1.27 mm | - | 0 W/m² | - |
| 1777687518 | 17.22° C | 98% | 1009.6 hPa | 3.05 mm | - | 0 W/m² | - |
| 1777687215 | 17.22° C | 97% | 1009.8 hPa | 1.27 mm | - | 0 W/m² | - |
| 1777686913 | 17.22° C | 97% | 1009.9 hPa | 1.78 mm | - | 0 W/m² | - |
| 1777686609 | 17.22° C | 97% | 1009.9 hPa | 3.05 mm | - | 0 W/m² | - |
| 1777686306 | 17.22° C | 97% | 1010.3 hPa | 4.32 mm | - | 0 W/m² | - |
| 1777686003 | 17.22° C | 97% | 1010.1 hPa | 4.83 mm | - | 0 W/m² | - |
| 1777685698 | 17.22° C | 97% | 1010 hPa | 1.78 mm | - | 0 W/m² | - |
| 1777685395 | 17.22° C | 97% | 1010.2 hPa | 0 mm | - | 0 W/m² | - |
| 1777685092 | 17.22° C | 97% | 1009.9 hPa | 0 mm | - | 0 W/m² | - |
| 1777684790 | 17.22° C | 97% | 1009.8 hPa | 0 mm | - | 0 W/m² | - |
| 1777684485 | 17.22° C | 97% | 1009.1 hPa | 0 mm | - | 0 W/m² | - |
| 1777684182 | 17.22° C | 96% | 1009.2 hPa | 0 mm | - | 0 W/m² | - |
| 1777683879 | 17.22° C | 96% | 1009.2 hPa | 0 mm | - | 0 W/m² | - |
| 1777683575 | 17.22° C | 96% | 1009.7 hPa | 0 mm | - | 0 W/m² | - |
| 1777683274 | 17.22° C | 96% | 1009.7 hPa | 0 mm | - | 0 W/m² | - |
| 1777682972 | 17.22° C | 96% | 1009.5 hPa | 0 mm | - | 0 W/m² | - |
| 1777682667 | 17.22° C | 96% | 1009.8 hPa | 0 mm | - | 0 W/m² | - |
| 1777682365 | 17.22° C | 96% | 1009.2 hPa | 1.27 mm | - | 0 W/m² | - |
| 1777682062 | 17.22° C | 96% | 1009 hPa | 1.27 mm | - | 0 W/m² | - |
| 1777681757 | 17.22° C | 95% | 1009.4 hPa | 0 mm | - | 0 W/m² | - |
| 1777681455 | 17.78° C | 95% | 1009.5 hPa | 0 mm | - | 0 W/m² | - |
| 1777681141 | 17.78° C | 95% | 1009.7 hPa | 0 mm | - | 0 W/m² | - |
| 1777680839 | 17.78° C | 95% | 1009.7 hPa | 0 mm | - | 0 W/m² | - |
* Rain latest hour (hover to see other rain measurements)
** Current wind speed in m/s (hover to see current wind gust speed)